Home > Weather > Lucerne > Past weeks

Flag for Switzerland Past Weather in Lucerne, Lucerne, Switzerland — Yesterday and Last 2 Weeks

Now
78 °F

Warm.


Feels Like: 79 °F
Forecast: 58 / 76 °F
Wind: 3 mph from Northeast

Location: Giswil

Current Time: Jul 26, 2016 at 4:14:01 PM

Latest Report: Jul 26, 2016 at 3:00 PM


Visibility: N/A

Pressure: 30.05 "Hg

Humidity: 64%

Dew Point: 64 °F

Location of LucerneLocation

Past Weather in Lucerne — Graph

°F

Lucerne Temperature Yesterday

Maximum temperature yesterday: 76 °F (at 6:00 PM)
Minimum temperature yesterday: 62 °F (at 5:00 AM)
Average temperature yesterday: 69 °F

High & Low Weather Summary for the Past Weeks

 TemperatureHumidityPressure
High88 °F (Jul 20, 5:00 PM)100% (Jul 16, 5:00 AM)30.39 "Hg (Jul 16, 5:00 AM)
Low44 °F (Jul 16, 6:00 AM)38% (Jul 20, 4:00 PM)29.88 "Hg (Jul 11, 3:00 PM)
Average65 °F81%30.10 "Hg
* Reported Jul 11 3:00 PM — Jul 26 3:00 PM, Lucerne, Weather by CustomWeather, © 2016

Note: Actual official high and low records may vary slightly from our data, if they occured in-between our weather recording intervals... More about our weather records

Advertising

Lucerne Weather History for the Previous 24 Hours

Scroll right to see more
 ConditionsComfort  
Time TempWeatherWind HumidityBarometerVisibility
3:00 PM
Tue, Jul 26
78 °FWarm.3 mph64%30.05 "HgN/A
2:00 PM78 °FWarm.3 mph63%30.06 "HgN/A
1:00 PM77 °FMild.5 mph65%30.07 "HgN/A
12:00 PM75 °FMild.5 mph72%30.09 "HgN/A
11:00 AM74 °FMild.5 mph74%30.09 "HgN/A
10:00 AM71 °FMild.2 mph79%30.09 "HgN/A
9:00 AM69 °FMild.2 mph88%30.11 "HgN/A
8:00 AM66 °FMild.1 mph98%30.12 "HgN/A
7:00 AM65 °FMild.1 mph99%30.11 "HgN/A
6:00 AM65 °FMild.1 mph99%30.11 "HgN/A
5:00 AM66 °FMild.No wind99%30.11 "HgN/A
4:00 AM66 °FMild.3 mph98%30.12 "HgN/A
3:00 AM67 °FMild.3 mph94%30.12 "HgN/A
2:00 AM68 °FMild.5 mph87%30.11 "HgN/A
1:00 AM66 °FMild.No wind95%30.12 "HgN/A
12:00 AM68 °FMild.1 mph88%30.11 "HgN/A
11:00 PM
Mon, Jul 25
67 °FMild.2 mph92%30.12 "HgN/A
10:00 PM67 °FMild.1 mph90%30.11 "HgN/A
9:00 PM70 °FMild.2 mph81%30.09 "HgN/A
8:00 PM72 °FMild.1 mph82%30.08 "HgN/A
7:00 PM74 °FMild.2 mph75%30.06 "HgN/A
6:00 PM76 °FMild.1 mph66%30.05 "HgN/A
5:00 PM75 °FMild.1 mph67%30.05 "HgN/A
4:00 PM76 °FMild.2 mph62%30.06 "HgN/A
Weather by CustomWeather, © 2016

See weather overviewHow to use our weather pages